Weather WX

World > North America > United States > Pennsylvania

Coon Hunter, Pennsylvania Regional Weather

Lat: 40.78N, Lon: 77.06W
Wx Zone: PAZ050
Warning FLW WEATHER ALERT - FLASH FLOOD WATCH (More Info. Click Here) Warning
Feedback

Coon Hunter, PA Regional Weather

Expires:201906182000;;692909
ASUS41 KOKX 181913
RWROKX

Regional Weather Roundup
National Weather Service New York NY
300 PM EDT TUE JUN 18 2019

Note: "FAIR" indicates few or no clouds below 12,000 feet with no
significant weather and/or obstructions to visibility.


PAZ047>061-062-071-182000-
Eastern Pennsylvania
  
CITY           SKY/WX    TMP DP  RH WIND       PRES   REMARKS
Philadelphia   PTSUNNY   79  70  74 SW12      29.86F                  
Allentown      PTSUNNY   80  69  69 SW3       29.85F                  
Scranton       RAIN      69  65  86 NE5       29.90S FOG              
$$


SKY/WX - Weather  TMP - Temperature  DP - Dew Point  RH - Relative Humidity
WIND - Wind Direction/Speed PRES - Barometric Pressure VSB - Visibility
WCI - Wind Chill Index E13G22 Wind - East Wind 13 mph/Gusts of 22 mph